Lapse_Rate
7.1 6.7 6.7 6.7 6.6 6.3 6.0 5.7 5.7 5.6 5.5 5.5 5.6 5.5 5.5 5.2 5.2 5.2 5.4 5.3 5.3 5.4 5.0 4.6 4.4 4.6 4.6 4.7 4.7 4.7 4.5 4.7
7.4 7.1 6.6 6.5 6.3 6.0 5.8 5.8 5.7 5.6 5.7 5.6 5.3 5.1 5.5 5.3 5.6 5.5 5.4 5.0 4.8 4.7 4.7 4.3 4.5 4.5 4.5 4.7 4.8 4.8 5.0 4.8
7.8 7.4 6.8 6.3 6.0 5.8 5.7 5.8 5.6 5.5 5.5 5.6 4.9 5.0 5.4 5.5 5.4 5.1 4.9 4.5 4.5 4.6 4.4 4.5 4.6 4.6 4.6 4.7 5.0 5.3 5.3 5.0
7.7 7.4 6.9 6.4 6.0 5.8 5.7 5.5 5.4 5.5 5.8 5.6 5.3 5.9 6.2 5.2 4.3 4.2 4.3 4.7 4.6 4.5 4.6 4.7 4.7 4.8 4.8 5.1 5.3 5.3 5.3 5.4
7.6 7.2 6.8 6.6 6.0 5.5 5.3 5.3 5.4 5.6 5.6 5.7 6.1 5.8 5.6 5.0 4.7 4.8 4.7 4.7 4.7 4.7 4.5 4.5 4.7 4.9 5.2 5.4 5.4 5.5 5.4 5.3
7.3 7.0 6.5 6.0 5.6 5.2 5.0 5.1 5.3 5.3 5.4 5.8 5.6 5.7 5.2 5.1 4.9 4.7 4.6 4.5 4.5 4.6 4.6 4.8 5.0 5.2 5.5 5.5 5.6 5.6 5.5 5.3
6.9 6.4 6.1 5.6 5.5 5.4 5.0 5.0 5.0 5.3 5.4 5.5 5.6 5.4 5.1 5.0 4.9 4.6 4.4 4.4 4.4 4.4 4.6 4.8 5.2 5.5 5.6 5.6 5.7 5.6 5.4 5.3
6.5 6.3 6.1 6.0 5.9 5.3 5.1 4.8 5.3 5.5 5.5 5.5 5.2 5.1 5.1 4.8 4.7 4.5 4.5 4.5 4.5 4.8 5.0 5.2 5.6 5.7 5.7 5.8 5.7 5.6 5.5 5.5
6.5 6.3 6.2 5.9 5.6 5.3 4.9 4.9 5.3 5.4 5.5 5.2 5.1 5.0 4.7 4.5 4.4 4.4 4.5 4.7 4.9 5.2 5.3 5.5 5.8 5.8 5.7 5.8 5.6 5.6 5.7 5.8
6.1 6.0 5.7 5.8 5.5 5.0 4.7 5.2 5.4 5.4 5.2 5.0 4.9 4.7 4.4 4.4 4.4 4.6 4.7 5.0 5.2 5.3 5.5 5.7 5.8 5.8 5.7 5.7 5.6 5.6 5.9 6.0
5.9 5.8 5.7 5.5 5.1 4.7 5.1 5.3 5.2 5.2 5.1 4.9 4.7 4.5 4.5 4.4 4.6 4.7 4.9 5.2 5.3 5.6 5.6 5.7 5.8 5.9 5.8 5.6 5.5 5.7 6.0 5.9
5.7 5.6 5.4 5.2 4.9 4.7 5.0 5.1 5.1 5.0 4.9 4.8 4.6 4.5 4.5 4.6 4.7 4.8 5.1 5.3 5.6 5.7 5.7 5.8 5.9 6.0 5.8 5.6 5.5 5.8 5.9 5.8
5.5 5.3 5.2 5.1 4.7 4.8 5.0 5.2 5.1 4.9 4.8 4.6 4.6 4.5 4.6 4.6 4.7 4.9 5.3 5.6 5.7 5.8 5.8 5.9 5.9 5.9 5.8 5.7 5.8 5.9 5.8 5.7
5.2 5.1 5.1 4.9 4.7 4.8 5.1 5.0 4.7 4.7 4.6 4.6 4.6 4.5 4.6 4.7 4.9 5.2 5.6 5.8 5.9 5.9 5.9 5.9 5.8 5.8 5.8 5.7 5.8 5.8 5.7 5.5
5.1 5.0 5.1 5.0 4.8 5.0 5.0 4.8 4.6 4.6 4.6 4.6 4.6 4.6 4.7 5.0 5.1 5.5 5.9 6.1 6.1 6.0 6.0 5.9 5.8 5.8 5.8 5.7 5.8 5.7 5.5 5.5
4.9 4.9 4.9 4.7 4.7 5.0 4.9 4.7 4.6 4.7 4.6 4.6 4.7 4.8 5.0 5.1 5.3 5.9 6.2 6.3 6.2 6.1 6.0 5.9 5.9 5.8 5.7 5.7 5.6 5.5 5.5 5.5
4.8 4.8 5.1 4.9 4.9 5.0 4.8 4.6 4.7 4.8 4.7 4.7 4.8 4.9 5.1 5.4 5.7 6.3 6.4 6.3 6.3 6.1 6.0 5.9 5.9 5.8 5.7 5.6 5.5 5.4 5.4 5.3
4.8 4.8 4.8 4.9 5.1 5.0 4.8 4.8 4.9 4.8 4.8 4.8 4.9 5.2 5.3 5.6 6.1 6.4 6.4 6.4 6.3 6.1 5.9 5.9 5.9 5.9 5.9 5.7 5.6 5.4 5.4 5.2
5.1 5.0 5.0 5.1 5.1 5.0 4.9 5.0 4.9 4.8 4.8 4.9 5.2 5.4 5.6 5.9 6.4 6.5 6.4 6.3 6.2 6.0 5.8 5.8 5.9 6.0 5.9 6.0 5.8 5.7 5.4 5.3
Wind_Speed
11 11 11 13 12 10 10 8 7 7 7 4 4 1 3 5 7 10 8 11 12 14 12 12 13 11 8 10 11 10 11 10
11 12 11 12 11 10 9 9 6 2 4 6 5 4 3 4 6 5 9 10 12 13 12 13 12 9 9 10 10 12 11 10
13 12 11 10 10 9 9 9 9 10 7 5 3 5 2 3 2 3 4 11 11 12 12 12 12 8 10 11 11 10 10 10
12 11 10 10 9 9 10 11 9 9 6 1 3 7 8 4 7 6 11 8 11 11 12 11 12 11 8 10 11 13 11 11
11 11 10 11 11 11 11 10 9 8 6 3 6 6 5 5 5 7 9 8 8 9 11 12 12 12 10 10 10 10 10 10
11 11 11 11 10 9 10 10 10 7 5 7 7 7 7 7 6 8 7 8 8 9 11 13 12 12 12 11 11 12 7 9
12 12 11 10 10 10 9 9 9 6 6 7 8 9 9 7 8 7 7 7 9 10 13 13 14 13 12 12 13 13 9 9
10 10 10 9 10 8 8 8 7 6 5 7 8 9 7 9 9 8 10 8 7 9 14 14 13 15 15 16 12 11 9 8
9 9 10 8 8 9 8 7 6 4 7 7 7 9 7 7 9 8 7 8 9 15 15 16 15 16 16 16 11 8 7 8
10 9 8 7 8 8 7 5 2 7 8 7 7 8 9 9 10 10 8 12 13 15 16 15 17 17 17 16 7 9 8 10
9 8 7 8 8 7 3 3 6 7 7 7 8 8 9 9 9 10 11 13 15 15 15 16 16 17 17 13 9 9 12 9
8 8 8 8 7 4 2 4 6 7 7 8 8 9 9 9 9 10 11 14 15 13 14 13 13 13 13 11 11 13 14 13
8 8 8 8 4 1 3 4 6 7 7 7 8 9 10 10 10 10 14 11 16 15 15 12 13 13 12 11 13 14 16 15
7 7 7 5 3 3 3 5 6 6 7 7 8 9 10 10 11 11 14 14 14 15 14 13 13 14 13 13 14 14 15 16
6 6 7 5 6 3 3 5 5 6 7 8 9 9 10 10 10 10 12 14 12 13 13 12 13 14 11 16 15 16 16 15
5 4 5 10 4 4 2 4 5 6 7 8 9 9 9 10 11 11 12 12 12 14 12 13 13 12 8 16 16 17 17 15
4 5 12 6 1 5 4 4 6 6 7 8 8 9 10 10 11 11 12 12 13 13 13 13 14 10 17 24 20 16 16 14
5 9 7 4 3 1 3 4 5 6 7 8 9 9 10 11 12 12 13 13 13 13 13 14 14 13 17 24 27 16 15 14
10 7 6 3 6 2 2 4 5 6 7 8 9 10 11 11 12 13 13 13 13 13 14 14 14 11 20 25 27 17 15 16
Wind_Direction
131 146 127 118 123 116 117 101 106 85 79 107 82 182 351 351 2 7 6 353 348 341 338 343 333 338 346 345 334 333 322 332
134 111 117 112 111 113 111 98 93 89 77 39 27 286 341 340 11 11 349 354 352 343 347 336 349 340 339 340 334 336 330 338
117 124 117 121 114 100 102 87 58 45 56 48 277 338 286 319 314 327 357 356 346 341 342 337 348 336 336 344 343 332 330 337
127 125 125 112 108 99 82 75 77 65 67 342 291 239 243 14 345 353 353 352 341 343 342 340 335 339 337 340 343 338 329 328
127 125 127 106 93 81 84 82 71 62 31 288 353 351 358 355 341 359 322 339 336 341 343 335 333 332 341 332 332 329 333 322
124 128 113 106 104 100 88 75 68 50 27 16 4 4 354 353 353 331 335 335 337 334 344 326 330 325 335 326 326 322 331 317
115 109 118 116 105 86 83 74 63 46 26 20 18 11 360 347 347 336 345 338 340 338 341 330 321 330 329 325 325 320 340 328
125 136 131 114 99 97 85 71 60 39 19 24 20 7 351 340 350 347 334 341 339 348 333 331 325 324 323 325 322 332 345 321
141 133 117 117 103 89 80 65 50 8 28 21 17 5 360 352 353 346 337 337 333 333 333 323 320 324 325 323 325 333 325 302
132 123 115 118 98 81 62 48 11 32 24 12 11 8 2 355 345 343 343 335 332 341 324 326 327 325 326 327 329 329 314 300
131 123 129 102 92 77 49 292 32 31 19 15 11 1 359 351 343 346 342 339 335 330 333 331 328 331 330 336 332 322 306 302
140 128 121 109 89 60 258 30 32 22 16 12 3 360 352 351 351 348 347 338 340 338 337 333 331 330 339 335 331 320 314 312
138 140 124 111 113 333 49 42 24 19 12 6 6 357 356 354 353 349 348 346 342 338 338 335 336 337 334 337 338 320 316 314
145 142 132 139 105 32 16 32 19 9 5 2 11 2 358 355 351 349 350 347 343 343 343 340 339 334 333 355 331 319 316 314
157 157 123 178 68 9 354 25 16 3 5 4 12 4 357 357 353 351 350 345 344 344 345 342 340 333 1 346 334 324 319 311
159 152 132 81 60 299 3 20 11 4 7 8 10 3 359 358 353 349 348 343 344 341 344 345 345 337 14 350 334 325 317 314
143 113 92 95 224 278 10 19 14 6 12 12 9 2 359 358 350 348 347 343 345 347 348 348 347 349 9 350 342 325 318 318
120 96 104 130 224 320 347 32 15 9 15 14 10 2 359 355 351 352 349 345 347 347 349 351 353 356 7 354 345 325 328 333
94 110 115 158 228 47 46 23 27 17 21 13 10 0 356 354 352 352 349 346 348 348 349 350 356 4 16 1 346 335 340 341